HSO903 ENBR-ENHD

Flight info

Callsign HSO903
Flight time 0h 39m
Altitude 3000
Route ADADI DCT UPDER
Aircraft B222/L-SDGIRY/SB2

Departure

Time 2026-04-27 14:59
Airport Bergen Airport, Flesland (ENBR)

Arrival

Time 2026-04-27 15:38
Airport Haugesund Airport, Karmøy (ENHD)
Time Latitude Longitude Altitude Speed Heading
2026-04-27 14:44 60.29319 5.22375 164 ft 0 kts 350°
2026-04-27 14:54 60.29320 5.22356 163 ft 4 kts 273°
2026-04-27 14:54 60.29316 5.22300 162 ft 3 kts 266°
2026-04-27 14:54 60.29321 5.22271 161 ft 2 kts 312°
2026-04-27 14:54 60.29336 5.22259 160 ft 3 kts 348°
2026-04-27 14:55 60.29365 5.22248 158 ft 5 kts 353°
2026-04-27 14:55 60.29401 5.22221 156 ft 6 kts 311°
2026-04-27 14:55 60.29407 5.22197 155 ft 5 kts 283°
2026-04-27 14:55 60.29406 5.22168 154 ft 4 kts 259°
2026-04-27 14:56 60.29402 5.22137 154 ft 1 kts 270°
2026-04-27 14:56 60.29402 5.22136 154 ft 0 kts 255°
2026-04-27 14:57 60.29399 5.22080 152 ft 2 kts 311°
2026-04-27 14:57 60.29494 5.22111 250 ft 39 kts 349°
2026-04-27 14:57 60.29894 5.21844 365 ft 78 kts 327°
2026-04-27 14:58 60.30325 5.21041 504 ft 93 kts 304°
2026-04-27 14:58 60.30713 5.19886 628 ft 103 kts 307°
2026-04-27 14:58 60.31193 5.18725 674 ft 113 kts 310°
2026-04-27 14:58 60.31596 5.18022 716 ft 119 kts 319°
2026-04-27 14:59 60.32270 5.16968 737 ft 125 kts 315°
2026-04-27 14:59 60.32929 5.15805 816 ft 124 kts 315°
2026-04-27 14:59 60.33466 5.14518 891 ft 121 kts 295°
2026-04-27 14:59 60.33747 5.12918 935 ft 114 kts 286°
2026-04-27 15:00 60.33975 5.11481 1132 ft 102 kts 288°
2026-04-27 15:00 60.34248 5.10274 1441 ft 84 kts 295°
2026-04-27 15:00 60.34525 5.09112 1510 ft 100 kts 292°
2026-04-27 15:00 60.34822 5.07763 1599 ft 109 kts 290°
2026-04-27 15:01 60.35119 5.06328 1737 ft 111 kts 290°
2026-04-27 15:01 60.35414 5.04866 1839 ft 113 kts 290°
2026-04-27 15:01 60.35709 5.03392 1963 ft 113 kts 290°
2026-04-27 15:01 60.36006 5.01898 2035 ft 118 kts 289°
2026-04-27 15:02 60.36305 5.00344 1955 ft 116 kts 287°
2026-04-27 15:02 60.36588 4.98844 1970 ft 115 kts 288°
2026-04-27 15:02 60.36880 4.97331 1968 ft 115 kts 288°
2026-04-27 15:02 60.37171 4.95859 1970 ft 112 kts 289°
2026-04-27 15:03 60.37461 4.94426 1967 ft 110 kts 290°
2026-04-27 15:03 60.37762 4.92961 1978 ft 115 kts 288°
2026-04-27 15:03 60.37875 4.91414 1968 ft 112 kts 266°
2026-04-27 15:03 60.37938 4.89874 1970 ft 110 kts 278°
2026-04-27 15:04 60.38093 4.88369 1973 ft 109 kts 281°
2026-04-27 15:04 60.38269 4.86892 1966 ft 107 kts 281°
2026-04-27 15:04 60.38444 4.85431 1968 ft 107 kts 281°
2026-04-27 15:04 60.38615 4.83981 1975 ft 105 kts 281°
2026-04-27 15:05 60.38778 4.82557 1976 ft 104 kts 281°
2026-04-27 15:05 60.38935 4.81135 2027 ft 103 kts 281°
2026-04-27 15:05 60.39090 4.79703 2056 ft 105 kts 280°
2026-04-27 15:05 60.39244 4.78252 2009 ft 106 kts 279°
2026-04-27 15:06 60.39391 4.76790 1952 ft 107 kts 279°
2026-04-27 15:06 60.39259 4.75359 1892 ft 108 kts 234°
2026-04-27 15:06 60.38613 4.74622 1848 ft 112 kts 191°
2026-04-27 15:06 60.37837 4.74634 1912 ft 113 kts 176°
2026-04-27 15:07 60.37058 4.74889 1964 ft 114 kts 172°
2026-04-27 15:07 60.36273 4.75203 1966 ft 115 kts 172°
2026-04-27 15:07 60.35482 4.75485 1965 ft 116 kts 173°
2026-04-27 15:07 60.34689 4.75723 1964 ft 115 kts 173°
2026-04-27 15:08 60.33895 4.75930 1965 ft 115 kts 174°
2026-04-27 15:08 60.33095 4.76103 2120 ft 116 kts 177°
2026-04-27 15:08 60.32281 4.76258 2276 ft 118 kts 177°
2026-04-27 15:08 60.31466 4.76430 2441 ft 118 kts 175°
2026-04-27 15:09 60.30650 4.76622 2602 ft 118 kts 174°
2026-04-27 15:09 60.29839 4.76826 2777 ft 116 kts 173°
2026-04-27 15:09 60.29040 4.77033 2940 ft 116 kts 173°
2026-04-27 15:09 60.28241 4.77239 3094 ft 116 kts 173°
2026-04-27 15:10 60.27444 4.77443 3271 ft 115 kts 172°
2026-04-27 15:10 60.26642 4.77663 3070 ft 121 kts 169°
2026-04-27 15:10 60.25845 4.77914 3000 ft 113 kts 170°
2026-04-27 15:10 60.25052 4.78122 2996 ft 119 kts 173°
2026-04-27 15:11 60.24210 4.78307 2986 ft 123 kts 173°
2026-04-27 15:11 60.23354 4.78493 2981 ft 123 kts 173°
2026-04-27 15:11 60.22505 4.78687 2984 ft 122 kts 173°
2026-04-27 15:11 60.21662 4.78883 2986 ft 122 kts 172°
2026-04-27 15:12 60.20821 4.79080 2985 ft 122 kts 172°
2026-04-27 15:12 60.19979 4.79277 2987 ft 122 kts 172°
2026-04-27 15:12 60.19140 4.79474 2987 ft 121 kts 172°
2026-04-27 15:12 60.18302 4.79670 2988 ft 121 kts 172°
2026-04-27 15:13 60.17474 4.79865 2988 ft 121 kts 172°
2026-04-27 15:13 60.16639 4.80062 2988 ft 121 kts 172°
2026-04-27 15:13 60.15802 4.80259 2985 ft 121 kts 172°
2026-04-27 15:13 60.14958 4.80453 2987 ft 124 kts 173°
2026-04-27 15:14 60.14094 4.80649 2986 ft 126 kts 173°
2026-04-27 15:14 60.13221 4.80852 2984 ft 127 kts 172°
2026-04-27 15:14 60.12341 4.81061 2986 ft 127 kts 172°
2026-04-27 15:14 60.11461 4.81271 2987 ft 128 kts 172°
2026-04-27 15:15 60.10580 4.81482 2989 ft 128 kts 172°
2026-04-27 15:15 60.09697 4.81692 2987 ft 128 kts 172°
2026-04-27 15:15 60.08814 4.81892 2990 ft 128 kts 173°
2026-04-27 15:15 60.07933 4.82089 2995 ft 127 kts 173°
2026-04-27 15:16 60.07062 4.82277 2996 ft 126 kts 173°
2026-04-27 15:16 60.06195 4.82466 2995 ft 125 kts 173°
2026-04-27 15:16 60.05335 4.82659 2997 ft 124 kts 173°
2026-04-27 15:16 60.04474 4.82857 2995 ft 125 kts 172°
2026-04-27 15:17 60.03612 4.83058 2994 ft 125 kts 173°
2026-04-27 15:17 60.02751 4.83261 2996 ft 124 kts 172°
2026-04-27 15:17 60.01891 4.83464 2995 ft 124 kts 172°
2026-04-27 15:17 60.01034 4.83666 2997 ft 125 kts 172°
2026-04-27 15:18 60.00170 4.83869 2996 ft 125 kts 172°
2026-04-27 15:18 59.99301 4.84072 2997 ft 126 kts 172°
2026-04-27 15:18 59.98433 4.84276 2995 ft 126 kts 172°
2026-04-27 15:18 59.97560 4.84482 2995 ft 127 kts 172°
2026-04-27 15:19 59.96683 4.84688 2993 ft 127 kts 172°
2026-04-27 15:19 59.95807 4.84893 2993 ft 127 kts 172°
2026-04-27 15:19 59.94929 4.85098 2992 ft 127 kts 172°
2026-04-27 15:19 59.94055 4.85303 2991 ft 126 kts 172°
2026-04-27 15:20 59.93182 4.85508 2991 ft 126 kts 172°
2026-04-27 15:20 59.92312 4.85712 2989 ft 126 kts 172°
2026-04-27 15:20 59.91443 4.85914 2991 ft 126 kts 172°
2026-04-27 15:20 59.90573 4.86116 2992 ft 126 kts 173°
2026-04-27 15:21 59.89690 4.86314 2990 ft 129 kts 173°
2026-04-27 15:21 59.88798 4.86516 2988 ft 129 kts 173°
2026-04-27 15:21 59.87913 4.86722 2987 ft 130 kts 172°
2026-04-27 15:21 59.87018 4.86934 2986 ft 129 kts 172°
2026-04-27 15:22 59.86124 4.87144 2989 ft 129 kts 172°
2026-04-27 15:22 59.85232 4.87354 2989 ft 129 kts 173°
2026-04-27 15:22 59.84340 4.87562 2990 ft 129 kts 173°
2026-04-27 15:22 59.83443 4.87771 2988 ft 130 kts 173°
2026-04-27 15:23 59.82547 4.87981 2987 ft 130 kts 172°
2026-04-27 15:23 59.81650 4.88191 2987 ft 130 kts 172°
2026-04-27 15:23 59.80754 4.88399 2985 ft 130 kts 172°
2026-04-27 15:23 59.79860 4.88607 2986 ft 129 kts 172°
2026-04-27 15:24 59.78968 4.88814 2985 ft 129 kts 173°
2026-04-27 15:24 59.78081 4.89020 2987 ft 128 kts 173°
2026-04-27 15:24 59.77198 4.89225 2986 ft 127 kts 173°
2026-04-27 15:24 59.76321 4.89428 2997 ft 127 kts 173°
2026-04-27 15:25 59.75444 4.89630 2999 ft 127 kts 173°
2026-04-27 15:25 59.74562 4.89833 2999 ft 128 kts 173°
2026-04-27 15:25 59.73676 4.90039 2993 ft 128 kts 173°
2026-04-27 15:25 59.72785 4.90245 2996 ft 129 kts 173°
2026-04-27 15:26 59.71896 4.90452 2996 ft 129 kts 173°
2026-04-27 15:26 59.71000 4.90659 2996 ft 130 kts 173°
2026-04-27 15:26 59.70096 4.90867 2995 ft 131 kts 173°
2026-04-27 15:26 59.69192 4.91075 2995 ft 131 kts 173°
2026-04-27 15:27 59.68285 4.91285 2996 ft 131 kts 173°
2026-04-27 15:27 59.67380 4.91493 2995 ft 130 kts 173°
2026-04-27 15:27 59.66486 4.91700 2994 ft 129 kts 173°
2026-04-27 15:27 59.65596 4.91905 2993 ft 129 kts 173°
2026-04-27 15:28 59.64704 4.92109 2994 ft 129 kts 173°
2026-04-27 15:28 59.63806 4.92313 2994 ft 130 kts 173°
2026-04-27 15:28 59.62907 4.92519 2994 ft 130 kts 173°
2026-04-27 15:28 59.62005 4.92726 2992 ft 130 kts 173°
2026-04-27 15:29 59.61107 4.92933 2991 ft 130 kts 173°
2026-04-27 15:29 59.60209 4.93140 2991 ft 130 kts 173°
2026-04-27 15:29 59.59308 4.93349 2990 ft 131 kts 173°
2026-04-27 15:29 59.58403 4.93556 2989 ft 131 kts 173°
2026-04-27 15:30 59.57501 4.93761 2985 ft 130 kts 173°
2026-04-27 15:30 59.56604 4.93965 2984 ft 129 kts 173°
2026-04-27 15:30 59.55712 4.94170 2987 ft 128 kts 173°
2026-04-27 15:30 59.54826 4.94373 2986 ft 128 kts 173°
2026-04-27 15:31 59.53938 4.94576 2985 ft 128 kts 173°
2026-04-27 15:31 59.53050 4.94778 2983 ft 129 kts 173°
2026-04-27 15:31 59.52157 4.94980 2982 ft 128 kts 173°
2026-04-27 15:31 59.51271 4.95183 2982 ft 128 kts 173°
2026-04-27 15:32 59.50382 4.95386 2981 ft 128 kts 173°
2026-04-27 15:32 59.49500 4.95618 2885 ft 126 kts 170°
2026-04-27 15:32 59.48646 4.95973 2932 ft 127 kts 167°
2026-04-27 15:32 59.47774 4.96397 2898 ft 130 kts 165°
2026-04-27 15:33 59.46925 4.96956 2846 ft 131 kts 158°
2026-04-27 15:33 59.46108 4.97740 2758 ft 131 kts 149°
2026-04-27 15:33 59.45349 4.98760 2577 ft 133 kts 143°
2026-04-27 15:33 59.44640 4.99898 2412 ft 129 kts 140°
2026-04-27 15:34 59.43977 5.01035 2334 ft 127 kts 139°
2026-04-27 15:34 59.43341 5.02275 2150 ft 131 kts 134°
2026-04-27 15:34 59.42706 5.03550 2068 ft 129 kts 138°
2026-04-27 15:34 59.42074 5.04800 1929 ft 128 kts 134°
2026-04-27 15:35 59.41474 5.06102 1832 ft 128 kts 133°
2026-04-27 15:35 59.40891 5.07388 1831 ft 124 kts 133°
2026-04-27 15:35 59.40300 5.08614 1713 ft 125 kts 135°
2026-04-27 15:35 59.39708 5.09862 1504 ft 124 kts 131°
2026-04-27 15:36 59.39146 5.11105 1358 ft 119 kts 132°
2026-04-27 15:36 59.38583 5.12252 1224 ft 114 kts 132°
2026-04-27 15:36 59.38073 5.13400 1108 ft 110 kts 128°
2026-04-27 15:36 59.37577 5.14535 961 ft 108 kts 129°
2026-04-27 15:37 59.37058 5.15598 805 ft 105 kts 132°
2026-04-27 15:37 59.36584 5.16564 643 ft 88 kts 129°
2026-04-27 15:37 59.36230 5.17389 470 ft 69 kts 130°
2026-04-27 15:37 59.35949 5.17978 377 ft 51 kts 141°
2026-04-27 15:38 59.35692 5.18466 337 ft 53 kts 133°
2026-04-27 15:38 59.35454 5.19024 239 ft 51 kts 135°
2026-04-27 15:38 59.35215 5.19495 199 ft 48 kts 139°
2026-04-27 15:38 59.34982 5.19944 123 ft 46 kts 139°
2026-04-27 15:39 59.34774 5.20356 101 ft 40 kts 137°
2026-04-27 15:39 59.34597 5.20721 94 ft 34 kts 135°
2026-04-27 15:39 59.34438 5.21032 84 ft 29 kts 136°
2026-04-27 15:39 59.34346 5.21220 83 ft 9 kts 126°
2026-04-27 15:40 59.34344 5.21297 80 ft 4 kts 60°
2026-04-27 15:40 59.34366 5.21345 79 ft 6 kts 41°
2026-04-27 15:40 59.34392 5.21394 71 ft 3 kts 45°
2026-04-27 15:40 59.34400 5.21408 74 ft 0 kts 45°
2026-04-27 15:41 59.34401 5.21410 74 ft 0 kts 48°
2026-04-27 15:42 59.34409 5.21424 74 ft 5 kts 26°
2026-04-27 15:42 59.34441 5.21436 78 ft 6 kts 319°
2026-04-27 15:43 59.34466 5.21412 75 ft 6 kts 353°
2026-04-27 15:43 59.34518 5.21433 77 ft 5 kts 11°
2026-04-27 15:43 59.34528 5.21437 77 ft 0 kts 10°